ZIYUAN 1-02C (ZY 1-02C)

Last updated on Fri Dec 19 2025 00:02:33 GMT+0000 (Coordinated Universal Time)

1 38038U 11079A 25352.68473542 .00000428 00000+0 15556-3 0 9994 2 38038 98.4334 58.5891 0007370 122.6638 28.7456 14.38018818733261
UTC large
Height (km)
Speed (km/s)
/
Latitude / Longitude
Inclination (degrees)
Orbital Period (minutes)
Azimuth
Elevation
Range (km)
Doppler Factor

Next 0 passes for location: London (51.5072 / 0.1276)

Sorry there are no passes over London.